Falfurrias, TX

9:10 PM CDT on October 18, 2019 (GMT -0500)
Falfurrias

Weather History for KBKS - August, 2019

Change the Weather History Date:

Wednesday, August 21, 2019

  Actual Average (KNQI) Record (KNQI)
Temperature  
Mean Temperature 88 °F -  
Max Temperature 101 °F 93 °F 102 °F (1997)
Min Temperature 77 °F 73 °F 72 °F (2012)
Cooling Degree Days 24    
Growing Degree Days 38 (Base 50)    
Moisture  
Dew Point 72 °F    
Average Humidity 64    
Maximum Humidity 90    
Minimum Humidity 33    
Precipitation  
Precipitation 0.00 in - - ()
Sea Level Pressure  
Sea Level Pressure 29.95 in    
Wind  
Wind Speed 5 mph ()    
Max Wind Speed 17 mph    
Max Gust Speed 28 mph    
Visibility 9.7 miles    
Events      
Averages and records for this station are not official NWS values.
T = Trace of Precipitation, MM = Missing Value Source: Averaged Metar Reports

Daily Weather History Graph

Daily Weather History Graph

Search for Another Location

Airport or City:

Astronomy

Aug. 21, 2019 Rise Set
Actual Time 7:06 AM CDT 8:04 PM CDT
Civil Twilight 6:42 AM CDT 8:28 PM CDT
Nautical Twilight 6:13 AM CDT 8:56 PM CDT
Astronomical Twilight 5:44 AM CDT 9:26 PM CDT
Moon 11:54 PM CDT (8/21) 12:14 PM CDT (8/21)
Length of Visible Light 13h 46m
Length of Day
12h 57m
Waning Gibbous, 69% of the Moon is Illuminated
Aug 21
Waning Gibbous
Aug 23
Last Quarter
Aug 30
New
Sep 5
First Quarter
Sep 13
Full

Hourly Weather History & Observations

Time (CDT) Temp. Heat Index Dew Point Humidity Pressure Visibility Wind Dir Wind Speed Gust Speed Precip Events Conditions
12:15 AM 81.7 °F 87.6 °F 74.3 °F 78% 29.98 in 10.0 mi East 3.5 mph - N/A   Clear
12:35 AM 81.0 °F 86.3 °F 74.3 °F 80% 29.99 in 10.0 mi East 3.5 mph - N/A   Clear
12:55 AM 80.6 °F 85.7 °F 74.3 °F 81% 29.99 in 10.0 mi East 3.5 mph - N/A   Clear
1:15 AM 80.2 °F 85.2 °F 74.5 °F 83% 29.99 in 10.0 mi Calm Calm - N/A   Clear
1:35 AM 80.1 °F 84.8 °F 74.5 °F 83% 29.98 in 10.0 mi Calm Calm - N/A   Clear
1:55 AM 79.7 °F - 74.5 °F 84% 29.98 in 10.0 mi Calm Calm - N/A   Clear
2:15 AM 79.9 °F - 74.7 °F 84% 29.98 in 10.0 mi Calm Calm - N/A   Clear
2:35 AM 79.7 °F - 74.7 °F 84% 29.98 in 10.0 mi Calm Calm - N/A   Clear
2:55 AM 79.7 °F - 74.5 °F 84% 29.97 in 10.0 mi Calm Calm - N/A   Clear
3:15 AM 79.3 °F - 74.7 °F 86% 29.97 in 10.0 mi Calm Calm - N/A   Clear
3:35 AM 78.3 °F - 73.9 °F 87% 29.97 in 10.0 mi East 3.5 mph - N/A   Clear
3:55 AM 77.9 °F - 73.9 °F 88% 29.97 in 10.0 mi ENE 3.5 mph - N/A   Clear
4:15 AM 77.9 °F - 73.9 °F 88% 29.97 in 10.0 mi ENE 3.5 mph - N/A   Clear
4:35 AM 77.9 °F - 74.1 °F 88% 29.97 in 10.0 mi Calm Calm - N/A   Clear
4:55 AM 78.3 °F - 74.3 °F 88% 29.97 in 7.0 mi Calm Calm - N/A   Scattered Clouds
5:15 AM 77.9 °F - 73.9 °F 88% 29.98 in 7.0 mi Calm Calm - N/A   Scattered Clouds
5:35 AM 77.0 °F - 73.4 °F 89% 29.97 in 7.0 mi East 3.5 mph - N/A   Clear
5:55 AM 77.0 °F - 73.6 °F 89% 29.98 in 7.0 mi ENE 4.6 mph - N/A   Scattered Clouds
6:15 AM 77.4 °F - 73.8 °F 89% 29.98 in 7.0 mi NE 3.5 mph - N/A   Mostly Cloudy
6:35 AM 77.9 °F - 74.1 °F 88% 29.98 in 10.0 mi Calm Calm - N/A   Mostly Cloudy
6:55 AM 77.0 °F - 73.4 °F 89% 29.98 in 10.0 mi Calm Calm - N/A   Scattered Clouds
7:15 AM 77.0 °F - 73.4 °F 89% 29.98 in 10.0 mi Calm Calm - N/A   Clear
7:35 AM 77.0 °F - 73.8 °F 90% 29.98 in 7.0 mi Calm Calm - N/A   Clear
7:55 AM 78.1 °F - 74.5 °F 89% 29.98 in 7.0 mi East 3.5 mph - N/A   Scattered Clouds
8:15 AM 80.1 °F 85.2 °F 75.4 °F 86% 29.98 in 7.0 mi ESE 3.5 mph - N/A   Clear
8:35 AM 82.2 °F 89.6 °F 75.9 °F 81% 29.99 in 10.0 mi Calm Calm - N/A   Clear
8:55 AM 85.1 °F 94.9 °F 76.3 °F 75% 29.99 in 10.0 mi SE 5.8 mph - N/A   Clear
9:15 AM 87.1 °F 97.3 °F 75.9 °F 69% 29.99 in 10.0 mi SE 10.4 mph - N/A   Clear
9:35 AM 88.0 °F 98.0 °F 75.4 °F 66% 29.99 in 10.0 mi SE 9.2 mph - N/A   Clear
9:55 AM 89.4 °F 99.4 °F 74.8 °F 62% 29.99 in 10.0 mi SSE 10.4 mph - N/A   Scattered Clouds
10:15 AM 90.7 °F 99.6 °F 73.8 °F 57% 29.99 in 10.0 mi SE 10.4 mph - N/A   Scattered Clouds
10:35 AM 90.3 °F 99.3 °F 73.6 °F 58% 30.00 in 10.0 mi SSE 9.2 mph - N/A   Scattered Clouds
10:55 AM 92.3 °F 100.9 °F 72.7 °F 53% 29.99 in 10.0 mi SE 9.2 mph 17.3 mph N/A   Scattered Clouds
11:15 AM 94.1 °F 100.6 °F 70.3 °F 46% 30.00 in 10.0 mi SSE 11.5 mph 17.3 mph N/A   Scattered Clouds
11:35 AM 95.2 °F 101.7 °F 69.8 °F 44% 29.99 in 10.0 mi ESE 9.2 mph - N/A   Clear
11:55 AM 95.7 °F 100.3 °F 68.2 °F 40% 29.99 in 10.0 mi SE 9.2 mph 16.1 mph N/A   Clear
12:15 PM 98.2 °F 103.4 °F 67.8 °F 37% 29.98 in 10.0 mi SE 10.4 mph - N/A   Clear
12:35 PM 96.3 °F 101.4 °F 68.0 °F 40% 29.97 in 10.0 mi ESE 11.5 mph - N/A   Scattered Clouds
1:15 PM 97.9 °F 103.3 °F 68.2 °F 38% 29.96 in 10.0 mi ESE 9.2 mph 16.1 mph N/A   Scattered Clouds
1:35 PM 98.8 °F 103.8 °F 67.5 °F 36% 29.95 in 10.0 mi SE 10.4 mph - N/A   Scattered Clouds
1:55 PM 97.7 °F 103.0 °F 68.0 °F 38% 29.95 in 10.0 mi SSE 6.9 mph - N/A   Scattered Clouds
2:15 PM 100.6 °F 106.0 °F 67.6 °F 34% 29.94 in 10.0 mi SE 8.1 mph - N/A   Scattered Clouds
2:35 PM 99.9 °F 105.2 °F 67.5 °F 35% 29.93 in 10.0 mi SE 10.4 mph - N/A   Scattered Clouds
2:55 PM 100.8 °F 107.8 °F 69.1 °F 36% 29.92 in 10.0 mi SSE 15.0 mph 23.0 mph N/A   Scattered Clouds
3:15 PM 100.8 °F 107.0 °F 68.5 °F 35% 29.91 in 10.0 mi SE 16.1 mph 21.9 mph N/A   Scattered Clouds
3:35 PM 100.8 °F 105.6 °F 67.1 °F 33% 29.91 in 10.0 mi SSE 12.7 mph 19.6 mph N/A   Scattered Clouds
3:55 PM 99.5 °F 104.5 °F 67.6 °F 35% 29.90 in 10.0 mi ESE 17.3 mph 23.0 mph N/A   Scattered Clouds
4:15 PM 99.1 °F 104.5 °F 67.6 °F 36% 29.90 in 10.0 mi East 15.0 mph 23.0 mph N/A   Mostly Cloudy
4:35 PM 99.3 °F 104.2 °F 67.5 °F 35% 29.89 in 10.0 mi ESE 12.7 mph 18.4 mph N/A   Mostly Cloudy
4:55 PM 99.3 °F 104.2 °F 67.3 °F 35% 29.89 in 10.0 mi ESE 15.0 mph 20.7 mph N/A   Scattered Clouds
5:15 PM 97.5 °F 102.0 °F 67.5 °F 37% 29.89 in 10.0 mi SE 17.3 mph 27.6 mph N/A   Clear
5:35 PM 96.8 °F 101.8 °F 67.8 °F 39% 29.89 in 10.0 mi ESE 16.1 mph 23.0 mph N/A   Clear
5:55 PM 95.7 °F 102.1 °F 69.8 °F 43% 29.89 in 10.0 mi East 15.0 mph 21.9 mph N/A   Clear
6:15 PM 95.2 °F 102.3 °F 70.5 °F 45% 29.89 in 10.0 mi ESE 16.1 mph 21.9 mph N/A   Clear
6:35 PM 93.7 °F 100.5 °F 70.9 °F 47% 29.89 in 10.0 mi East 15.0 mph 23.0 mph N/A   Clear
6:55 PM 92.8 °F 99.7 °F 70.9 °F 49% 29.90 in 10.0 mi ESE 13.8 mph - N/A   Clear
7:15 PM 91.8 °F 99.1 °F 72.1 °F 52% 29.90 in 10.0 mi ESE 13.8 mph 20.7 mph N/A   Clear
7:35 PM 90.5 °F 97.5 °F 72.0 °F 54% 29.90 in 10.0 mi ESE 15.0 mph - N/A   Clear
7:55 PM 89.4 °F 96.8 °F 72.5 °F 57% 29.91 in 10.0 mi ESE 15.0 mph 18.4 mph N/A   Clear
8:15 PM 88.7 °F 96.2 °F 72.5 °F 59% 29.91 in 10.0 mi ESE 12.7 mph 17.3 mph N/A   Clear
8:35 PM 87.8 °F 95.2 °F 72.9 °F 61% 29.92 in 10.0 mi ESE 12.7 mph - N/A   Clear
8:55 PM 87.1 °F 94.9 °F 73.8 °F 64% 29.92 in 10.0 mi ESE 11.5 mph - N/A   Clear
9:15 PM 86.4 °F 95.1 °F 74.8 °F 68% 29.93 in 10.0 mi ESE 6.9 mph - N/A   Clear
9:35 PM 86.0 °F 95.1 °F 75.2 °F 70% 29.93 in 10.0 mi ESE 10.4 mph 16.1 mph N/A   Clear
9:55 PM 85.5 °F 94.6 °F 75.4 °F 72% 29.93 in 10.0 mi ESE 8.1 mph - N/A   Clear
10:15 PM 85.1 °F 94.1 °F 75.6 °F 73% 29.94 in 10.0 mi ESE 8.1 mph - N/A   Clear
10:35 PM 84.6 °F 93.2 °F 75.6 °F 74% 29.94 in 10.0 mi ESE 5.8 mph - N/A   Clear
10:55 PM 84.2 °F 92.6 °F 75.6 °F 75% 29.95 in 10.0 mi ESE 4.6 mph - N/A   Clear
11:15 PM 83.8 °F 92.1 °F 75.4 °F 76% 29.95 in 10.0 mi ESE 4.6 mph - N/A   Clear
11:35 PM 83.5 °F 91.2 °F 75.4 °F 76% 29.95 in 10.0 mi ESE 4.6 mph - N/A   Clear
11:55 PM 82.9 °F 90.2 °F 75.2 °F 77% 29.94 in 10.0 mi ESE 4.6 mph - N/A   Clear